Station Historical Data
Daily Summary for April 22, 2017 Units:  English    Metric   Both
« Previous Day
Next Day »
Daily Weekly Monthly Yearly Custom
  High: Low: Average:
Temperature: 63.4 °F 49.2 °F 56 °F
Dew Point: 49.0 °F 32.9 °F 44.7 °F
Humidity: 88 % 32 % 68 %
Wind Speed: 13.0 mph 0.0 mph 2 mph
Wind Gust: 14.0 mph - -
Wind:- - SSE
Pressure: 30.04 in 29.96 in -
Precipitation: 0.00 in    
Historical Graphs
 
 
Tabular Data for April 22, 2017
Time Temperature Dew Point Pressure Wind Wind Speed Wind Gust Humidity Rainfall Rate (Hourly) solar
00:02 55.5 °F 48.4 °F 30.01 in ESE 4.0 mph 9.0 mph 77 % 0.00 in 0.00 W/m2
00:07 55.5 °F 48.4 °F 30.01 in Calm   5.0 mph 77 % 0.00 in 0.00 W/m2
00:12 55.4 °F 48.3 °F 30.01 in ESE 2.0 mph 8.0 mph 77 % 0.00 in 0.00 W/m2
00:17 55.4 °F 48.3 °F 30.01 in Calm   8.0 mph 77 % 0.00 in 0.00 W/m2
00:22 55.3 °F 48.6 °F 30.01 in ESE 1.0 mph 6.0 mph 78 % 0.00 in 0.00 W/m2
00:27 55.2 °F 48.1 °F 30.02 in Calm   5.0 mph 77 % 0.00 in 0.00 W/m2
00:32 55.1 °F 48.0 °F 30.02 in SE 2.0 mph 7.0 mph 77 % 0.00 in 0.00 W/m2
00:37 55.0 °F 47.9 °F 30.01 in Calm   5.0 mph 77 % 0.00 in 0.00 W/m2
00:42 54.8 °F 47.7 °F 30.02 in SE 5.0 mph 5.0 mph 77 % 0.00 in 0.00 W/m2
00:47 54.7 °F 47.6 °F 30.02 in SE 8.0 mph 8.0 mph 77 % 0.00 in 0.00 W/m2
00:52 54.6 °F 47.5 °F 30.02 in SE 6.0 mph 7.0 mph 77 % 0.00 in 0.00 W/m2
00:58 54.5 °F 47.5 °F 30.02 in Calm   6.0 mph 77 % 0.00 in 0.00 W/m2
01:03 54.4 °F 47.7 °F 30.02 in SE 1.0 mph 7.0 mph 78 % 0.00 in 0.00 W/m2
01:08 54.2 °F 47.5 °F 30.02 in SE 1.0 mph 9.0 mph 78 % 0.00 in 0.00 W/m2
01:13 54.1 °F 47.4 °F 30.02 in SSE 4.0 mph 9.0 mph 78 % 0.00 in 0.00 W/m2
01:18 54.0 °F 47.3 °F 30.02 in SSE 4.0 mph 8.0 mph 78 % 0.00 in 0.00 W/m2
01:23 53.9 °F 47.5 °F 30.02 in SSE 5.0 mph 12.0 mph 79 % 0.00 in 0.00 W/m2
01:28 53.7 °F 47.0 °F 30.02 in SSE 1.0 mph 7.0 mph 78 % 0.00 in 0.00 W/m2
01:33 53.6 °F 46.9 °F 30.02 in SSE 4.0 mph 7.0 mph 78 % 0.00 in 0.00 W/m2
01:38 53.5 °F 46.8 °F 30.01 in Calm   6.0 mph 78 % 0.00 in 0.00 W/m2
01:43 53.4 °F 46.7 °F 30.01 in SSE 5.0 mph 5.0 mph 78 % 0.00 in 0.00 W/m2
01:48 53.3 °F 46.6 °F 30.01 in SSE 1.0 mph 6.0 mph 78 % 0.00 in 0.00 W/m2
01:53 53.2 °F 46.9 °F 30.01 in SE 4.0 mph 5.0 mph 79 % 0.00 in 0.00 W/m2
01:58 53.2 °F 46.9 °F 30.01 in Calm   9.0 mph 79 % 0.00 in 0.00 W/m2
02:03 53.1 °F 46.8 °F 30.01 in SE 5.0 mph 8.0 mph 79 % 0.00 in 0.00 W/m2
02:08 53.0 °F 46.7 °F 30.01 in Calm   8.0 mph 79 % 0.00 in 0.00 W/m2
02:13 52.9 °F 46.6 °F 30.01 in SE 5.0 mph 7.0 mph 79 % 0.00 in 0.00 W/m2
02:18 52.8 °F 46.5 °F 30.01 in Calm   8.0 mph 79 % 0.00 in 0.00 W/m2
02:23 52.8 °F 46.5 °F 30.01 in SE 1.0 mph 7.0 mph 79 % 0.00 in 0.00 W/m2
02:28 52.7 °F 46.7 °F 30.01 in Calm   7.0 mph 80 % 0.00 in 0.00 W/m2
02:33 52.6 °F 46.6 °F 30.01 in SSE 8.0 mph 8.0 mph 80 % 0.00 in 0.00 W/m2
02:35 52.5 °F 46.5 °F 30.01 in SSE 4.0 mph 11.0 mph 80 % 0.00 in 0.00 W/m2
02:40 52.4 °F 46.4 °F 30.01 in SSE 4.0 mph 8.0 mph 80 % 0.00 in 0.00 W/m2
02:45 52.3 °F 46.3 °F 30.01 in SSE 2.0 mph 7.0 mph 80 % 0.00 in 0.00 W/m2
02:50 52.3 °F 46.0 °F 30.01 in Calm   8.0 mph 79 % 0.00 in 0.00 W/m2
02:55 52.2 °F 46.2 °F 30.01 in SSE 4.0 mph 8.0 mph 80 % 0.00 in 0.00 W/m2
03:00 52.2 °F 46.2 °F 30.01 in SSE 2.0 mph 8.0 mph 80 % 0.00 in 0.00 W/m2
03:05 52.1 °F 45.8 °F 30.01 in SE 7.0 mph 9.0 mph 79 % 0.00 in 0.00 W/m2
03:10 52.1 °F 45.8 °F 30.01 in SE 4.0 mph 10.0 mph 79 % 0.00 in 0.00 W/m2
03:15 52.1 °F 45.8 °F 30.01 in SE 5.0 mph 7.0 mph 79 % 0.00 in 0.00 W/m2
03:20 52.1 °F 45.8 °F 30.01 in SE 1.0 mph 9.0 mph 79 % 0.00 in 0.00 W/m2
03:25 52.1 °F 45.5 °F 30.01 in SE 4.0 mph 8.0 mph 78 % 0.00 in 0.00 W/m2
03:30 52.1 °F 45.5 °F 30.01 in SE 8.0 mph 8.0 mph 78 % 0.00 in 0.00 W/m2
03:35 52.1 °F 45.5 °F 30.01 in SE 1.0 mph 14.0 mph 78 % 0.00 in 0.00 W/m2
03:40 52.0 °F 45.4 °F 30.01 in SE 1.0 mph 9.0 mph 78 % 0.00 in 0.00 W/m2
03:45 52.0 °F 45.4 °F 30.01 in Calm   7.0 mph 78 % 0.00 in 0.00 W/m2
03:50 51.9 °F 45.6 °F 30.01 in SE 7.0 mph 9.0 mph 79 % 0.00 in 0.00 W/m2
03:55 51.9 °F 45.6 °F 30.01 in SE 2.0 mph 11.0 mph 79 % 0.00 in 0.00 W/m2
04:00 51.8 °F 45.5 °F 30.01 in Calm   8.0 mph 79 % 0.00 in 0.00 W/m2
04:05 51.7 °F 45.7 °F 30.01 in ESE 4.0 mph 7.0 mph 80 % 0.00 in 0.00 W/m2
04:10 51.6 °F 45.6 °F 30.01 in Calm   8.0 mph 80 % 0.00 in 0.00 W/m2
04:15 51.4 °F 45.5 °F 30.00 in Calm   8.0 mph 80 % 0.00 in 0.00 W/m2
04:20 51.3 °F 45.3 °F 30.00 in ESE 6.0 mph 11.0 mph 80 % 0.00 in 0.00 W/m2
04:25 51.2 °F 45.6 °F 30.00 in Calm   11.0 mph 81 % 0.00 in 0.00 W/m2
04:30 51.0 °F 45.1 °F 30.00 in ESE 6.0 mph 11.0 mph 80 % 0.00 in 0.00 W/m2
04:35 50.9 °F 45.0 °F 30.00 in Calm   9.0 mph 80 % 0.00 in 0.00 W/m2
04:40 50.8 °F 44.9 °F 30.01 in Calm   6.0 mph 80 % 0.00 in 0.00 W/m2
04:45 50.7 °F 45.1 °F 30.01 in ESE 6.0 mph 8.0 mph 81 % 0.00 in 0.00 W/m2
04:50 50.6 °F 44.7 °F 30.01 in ESE 6.0 mph 6.0 mph 80 % 0.00 in 0.00 W/m2
04:55 50.5 °F 44.6 °F 30.01 in ESE 4.0 mph 6.0 mph 80 % 0.00 in 0.00 W/m2
05:00 50.4 °F 44.8 °F 30.01 in Calm   7.0 mph 81 % 0.00 in 0.00 W/m2
05:05 50.4 °F 44.8 °F 30.01 in Calm   6.0 mph 81 % 0.00 in 0.00 W/m2
05:10 50.3 °F 44.4 °F 30.01 in Calm   6.0 mph 80 % 0.00 in 0.00 W/m2
05:15 50.2 °F 44.3 °F 30.00 in Calm   7.0 mph 80 % 0.00 in 0.00 W/m2
05:20 50.1 °F 44.5 °F 30.01 in Calm   6.0 mph 81 % 0.00 in 0.00 W/m2
05:25 50.0 °F 44.4 °F 30.01 in Calm   7.0 mph 81 % 0.00 in 0.00 W/m2
05:30 49.9 °F 44.3 °F 30.01 in SE 2.0 mph 6.0 mph 81 % 0.00 in 0.00 W/m2
05:35 49.9 °F 44.3 °F 30.02 in SE 5.0 mph 5.0 mph 81 % 0.00 in 0.00 W/m2
05:40 49.8 °F 44.2 °F 30.02 in SE 5.0 mph 7.0 mph 81 % 0.00 in 0.00 W/m2
05:45 49.8 °F 44.2 °F 30.02 in SE 5.0 mph 6.0 mph 81 % 0.00 in 0.00 W/m2
05:50 49.7 °F 44.1 °F 30.02 in SE 4.0 mph 7.0 mph 81 % 0.00 in 0.00 W/m2
05:56 49.6 °F 44.0 °F 30.02 in SE 1.0 mph 9.0 mph 81 % 0.00 in 0.00 W/m2
06:01 49.6 °F 44.0 °F 30.02 in SE 4.0 mph 8.0 mph 81 % 0.00 in 0.00 W/m2
06:06 49.5 °F 44.2 °F 30.02 in SE 2.0 mph 12.0 mph 82 % 0.00 in 0.00 W/m2
06:11 49.5 °F 44.2 °F 30.02 in ESE 2.0 mph 7.0 mph 82 % 0.00 in 0.00 W/m2
06:16 49.4 °F 44.1 °F 30.02 in ESE 5.0 mph 11.0 mph 82 % 0.00 in 5.00 W/m2
06:21 49.4 °F 44.1 °F 30.02 in Calm   8.0 mph 82 % 0.00 in 7.00 W/m2
06:26 49.3 °F 44.0 °F 30.02 in ESE 4.0 mph 11.0 mph 82 % 0.00 in 11.00 W/m2
06:31 49.3 °F 44.0 °F 30.02 in ESE 1.0 mph 2.0 mph 82 % 0.00 in 14.00 W/m2
06:36 49.3 °F 44.0 °F 30.02 in ESE 2.0 mph 7.0 mph 82 % 0.00 in 19.00 W/m2
06:41 49.3 °F 44.0 °F 30.02 in ESE 4.0 mph 8.0 mph 82 % 0.00 in 25.00 W/m2
06:46 49.3 °F 44.0 °F 30.02 in ESE 5.0 mph 13.0 mph 82 % 0.00 in 30.00 W/m2
06:51 49.3 °F 44.0 °F 30.03 in ESE 2.0 mph 9.0 mph 82 % 0.00 in 40.00 W/m2
06:56 49.3 °F 44.0 °F 30.03 in Calm   13.0 mph 82 % 0.00 in 53.00 W/m2
07:01 49.2 °F 44.0 °F 30.03 in Calm     82 % 0.00 in 62.00 W/m2
07:06 49.2 °F 43.6 °F 30.03 in SE 5.0 mph 5.0 mph 81 % 0.00 in 74.00 W/m2
07:11 49.2 °F 43.6 °F 30.03 in SE 1.0 mph 2.0 mph 81 % 0.00 in 90.00 W/m2
07:16 49.3 °F 43.7 °F 30.03 in SE 5.0 mph 5.0 mph 81 % 0.00 in 116.00 W/m2
07:21 49.3 °F 43.7 °F 30.03 in SE 1.0 mph 2.0 mph 81 % 0.00 in 139.00 W/m2
07:26 49.4 °F 44.1 °F 30.03 in SE 5.0 mph 6.0 mph 82 % 0.00 in 155.00 W/m2
07:31 49.5 °F 44.2 °F 30.03 in SE 1.0 mph 2.0 mph 82 % 0.00 in 178.00 W/m2
07:36 49.6 °F 44.3 °F 30.03 in ESE 1.0 mph 6.0 mph 82 % 0.00 in 202.00 W/m2
07:41 49.6 °F 44.3 °F 30.03 in ESE 13.0 mph 13.0 mph 82 % 0.00 in 227.00 W/m2
07:46 49.7 °F 44.1 °F 30.03 in SE 2.0 mph 4.0 mph 81 % 0.00 in 257.00 W/m2
07:51 49.9 °F 44.3 °F 30.03 in SE 6.0 mph 8.0 mph 81 % 0.00 in 274.00 W/m2
07:56 50.1 °F 44.2 °F 30.03 in Calm     80 % 0.00 in 295.00 W/m2
08:01 50.3 °F 44.7 °F 30.03 in Calm   5.0 mph 81 % 0.00 in 306.00 W/m2
08:06 50.5 °F 44.9 °F 30.03 in SE 4.0 mph 7.0 mph 81 % 0.00 in 330.00 W/m2
08:11 50.8 °F 45.2 °F 30.04 in SE 7.0 mph 9.0 mph 81 % 0.00 in 345.00 W/m2
08:16 51.0 °F 45.4 °F 30.03 in SE 1.0 mph 2.0 mph 81 % 0.00 in 364.00 W/m2
08:21 51.3 °F 45.7 °F 30.04 in SE 5.0 mph 11.0 mph 81 % 0.00 in 392.00 W/m2
08:26 51.5 °F 45.5 °F 30.04 in SE 4.0 mph 8.0 mph 80 % 0.00 in 376.00 W/m2
08:31 51.8 °F 45.2 °F 30.03 in SE 4.0 mph 6.0 mph 78 % 0.00 in 415.00 W/m2
08:36 52.1 °F 44.8 °F 30.03 in Calm     76 % 0.00 in 443.00 W/m2
08:41 52.4 °F 45.1 °F 30.03 in Calm   1.0 mph 76 % 0.00 in 404.00 W/m2
08:46 52.7 °F 45.0 °F 30.03 in Calm   6.0 mph 75 % 0.00 in 478.00 W/m2
08:51 53.1 °F 45.4 °F 30.03 in SE 1.0 mph 5.0 mph 75 % 0.00 in 497.00 W/m2
08:56 53.5 °F 45.1 °F 30.03 in SE 4.0 mph 4.0 mph 73 % 0.00 in 515.00 W/m2
09:01 53.8 °F 44.6 °F 30.03 in SE 6.0 mph 7.0 mph 71 % 0.00 in 533.00 W/m2
09:06 54.1 °F 44.2 °F 30.03 in SE 2.0 mph 10.0 mph 69 % 0.00 in 554.00 W/m2
09:11 54.4 °F 41.7 °F 30.03 in SE 5.0 mph 6.0 mph 62 % 0.00 in 584.00 W/m2
09:16 54.8 °F 41.6 °F 30.03 in SSE 5.0 mph 9.0 mph 61 % 0.00 in 673.00 W/m2
09:21 55.1 °F 41.0 °F 30.02 in SE 8.0 mph 12.0 mph 59 % 0.00 in 176.00 W/m2
09:26 55.4 °F 40.0 °F 30.03 in South 2.0 mph 6.0 mph 56 % 0.00 in 652.00 W/m2
09:31 55.8 °F 40.8 °F 30.03 in SE 1.0 mph 4.0 mph 57 % 0.00 in 656.00 W/m2
09:36 56.3 °F 41.3 °F 30.02 in SE 4.0 mph 6.0 mph 57 % 0.00 in 589.00 W/m2
09:41 56.8 °F 41.8 °F 30.02 in SE 5.0 mph 12.0 mph 57 % 0.00 in 663.00 W/m2
09:46 57.2 °F 39.8 °F 30.02 in SSE 8.0 mph 8.0 mph 52 % 0.00 in 796.00 W/m2
09:51 57.4 °F 39.9 °F 30.02 in Calm   5.0 mph 52 % 0.00 in 742.00 W/m2
09:56 57.7 °F 40.2 °F 30.02 in Calm   6.0 mph 52 % 0.00 in 378.00 W/m2
10:01 58.1 °F 40.1 °F 30.02 in ESE 4.0 mph 8.0 mph 51 % 0.00 in 415.00 W/m2
10:06 58.4 °F 40.9 °F 30.01 in Calm     52 % 0.00 in 327.00 W/m2
10:11 58.6 °F 41.5 °F 30.01 in Calm   7.0 mph 53 % 0.00 in 369.00 W/m2
10:16 58.7 °F 42.1 °F 30.01 in SE 9.0 mph 9.0 mph 54 % 0.00 in 401.00 W/m2
10:21 58.8 °F 42.2 °F 30.01 in SSE 10.0 mph 10.0 mph 54 % 0.00 in 292.00 W/m2
10:26 59.0 °F 41.9 °F 30.00 in Calm   13.0 mph 53 % 0.00 in 357.00 W/m2
10:31 59.1 °F 42.5 °F 30.00 in ESE 5.0 mph 9.0 mph 54 % 0.00 in 473.00 W/m2
10:36 59.3 °F 41.7 °F 30.00 in SSE 2.0 mph 11.0 mph 52 % 0.00 in 360.00 W/m2
10:41 59.4 °F 41.3 °F 30.00 in SSE 2.0 mph 7.0 mph 51 % 0.00 in 596.00 W/m2
10:46 59.5 °F 42.9 °F 30.01 in South 2.0 mph 5.0 mph 54 % 0.00 in 577.00 W/m2
10:52 59.8 °F 44.5 °F 30.01 in Calm     57 % 0.00 in 353.00 W/m2
10:57 60.0 °F 42.8 °F 30.00 in SSW 4.0 mph 11.0 mph 53 % 0.00 in 867.00 W/m2
11:02 60.4 °F 43.2 °F 30.01 in Calm     53 % 0.00 in 976.00 W/m2
11:07 60.8 °F 43.1 °F 30.00 in SSE 4.0 mph 4.0 mph 52 % 0.00 in 687.00 W/m2
11:12 61.4 °F 43.6 °F 30.00 in SSE 1.0 mph 2.0 mph 52 % 0.00 in 591.00 W/m2
11:17 61.8 °F 43.5 °F 30.00 in SW 2.0 mph 8.0 mph 51 % 0.00 in 633.00 W/m2
11:22 62.3 °F 44.5 °F 30.00 in Calm   1.0 mph 52 % 0.00 in 689.00 W/m2
11:27 62.6 °F 45.2 °F 30.00 in South 2.0 mph 9.0 mph 53 % 0.00 in 392.00 W/m2
11:32 62.7 °F 43.8 °F 30.01 in SSW 1.0 mph 7.0 mph 50 % 0.00 in 501.00 W/m2
11:37 62.8 °F 44.9 °F 30.01 in SW 7.0 mph 7.0 mph 52 % 0.00 in 408.00 W/m2
11:42 62.9 °F 43.5 °F 30.00 in Calm   10.0 mph 49 % 0.00 in 538.00 W/m2
11:47 62.8 °F 42.8 °F 30.01 in Calm   9.0 mph 48 % 0.00 in 589.00 W/m2
11:52 62.7 °F 43.8 °F 30.00 in SSW 6.0 mph 11.0 mph 50 % 0.00 in 543.00 W/m2
11:57 62.6 °F 44.2 °F 30.00 in WSW 8.0 mph 10.0 mph 51 % 0.00 in 534.00 W/m2
12:02 62.6 °F 44.2 °F 30.00 in SW 5.0 mph 10.0 mph 51 % 0.00 in 475.00 W/m2
12:07 62.4 °F 42.5 °F 30.00 in Calm   2.0 mph 48 % 0.00 in 501.00 W/m2
12:12 62.3 °F 42.9 °F 30.00 in SW 9.0 mph 10.0 mph 49 % 0.00 in 519.00 W/m2
12:17 62.3 °F 42.9 °F 30.00 in Calm   6.0 mph 49 % 0.00 in 438.00 W/m2
12:22 62.1 °F 43.3 °F 30.01 in WSW 9.0 mph 9.0 mph 50 % 0.00 in 410.00 W/m2
12:27 61.8 °F 41.9 °F 30.00 in WSW 3.0 mph 4.0 mph 48 % 0.00 in 575.00 W/m2
12:28 61.8 °F 41.9 °F 30.00 in SSW 6.0 mph 8.0 mph 48 % 0.00 in 577.00 W/m2
12:33 61.7 °F 42.9 °F 30.00 in SW 6.0 mph 8.0 mph 50 % 0.00 in 591.00 W/m2
12:38 61.7 °F 41.8 °F 30.00 in WSW 1.0 mph 3.0 mph 48 % 0.00 in 587.00 W/m2
12:43 61.6 °F 42.8 °F 30.00 in Calm   3.0 mph 50 % 0.00 in 531.00 W/m2
12:48 61.7 °F 41.3 °F 30.00 in Calm   4.0 mph 47 % 0.00 in 577.00 W/m2
12:53 61.6 °F 40.6 °F 30.00 in Calm   7.0 mph 46 % 0.00 in 552.00 W/m2
12:58 61.6 °F 42.3 °F 30.00 in Calm   7.0 mph 49 % 0.00 in 701.00 W/m2
13:03 61.7 °F 40.7 °F 30.00 in SSW 7.0 mph 10.0 mph 46 % 0.00 in 868.00 W/m2
13:08 61.9 °F 41.5 °F 30.00 in SSW 1.0 mph 9.0 mph 47 % 0.00 in 821.00 W/m2
13:13 62.2 °F 39.5 °F 30.01 in WSW 6.0 mph 9.0 mph 43 % 0.00 in 624.00 W/m2
13:18 62.3 °F 39.5 °F 30.01 in WSW 5.0 mph 11.0 mph 43 % 0.00 in 693.00 W/m2
13:23 62.5 °F 40.3 °F 30.01 in SSW 3.0 mph 9.0 mph 44 % 0.00 in 886.00 W/m2
13:28 62.7 °F 36.8 °F 30.01 in SSW 8.0 mph 9.0 mph 38 % 0.00 in 824.00 W/m2
13:33 63.0 °F 34.9 °F 30.01 in SSW 9.0 mph 11.0 mph 35 % 0.00 in 763.00 W/m2
13:38 63.2 °F 32.9 °F 30.01 in Calm   10.0 mph 32 % 0.00 in 536.00 W/m2
13:43 63.3 °F 35.2 °F 30.01 in South 1.0 mph 11.0 mph 35 % 0.00 in 682.00 W/m2
13:48 63.4 °F 33.8 °F 30.01 in WSW 7.0 mph 11.0 mph 33 % 0.00 in 473.00 W/m2
13:53 63.3 °F 33.7 °F 30.01 in West 2.0 mph 9.0 mph 33 % 0.00 in 622.00 W/m2
13:58 63.0 °F 34.9 °F 30.01 in West 1.0 mph 7.0 mph 35 % 0.00 in 596.00 W/m2
14:03 62.8 °F 34.0 °F 30.01 in Calm   12.0 mph 34 % 0.00 in 612.00 W/m2
14:08 62.9 °F 36.2 °F 30.01 in WSW 4.0 mph 8.0 mph 37 % 0.00 in 684.00 W/m2
14:13 63.0 °F 37.7 °F 30.02 in SW 7.0 mph 13.0 mph 39 % 0.00 in 814.00 W/m2
14:18 63.0 °F 33.5 °F 30.02 in Calm   11.0 mph 33 % 0.00 in 796.00 W/m2
14:23 63.0 °F 33.5 °F 30.02 in Calm   3.0 mph 33 % 0.00 in 626.00 W/m2
14:28 63.1 °F 37.1 °F 30.02 in SW 8.0 mph 9.0 mph 38 % 0.00 in 633.00 W/m2
14:33 63.3 °F 37.3 °F 30.02 in Calm   13.0 mph 38 % 0.00 in 638.00 W/m2
14:38 63.2 °F 37.2 °F 30.02 in WSW 1.0 mph 12.0 mph 38 % 0.00 in 571.00 W/m2
14:43 63.2 °F 39.8 °F 30.02 in Calm   9.0 mph 42 % 0.00 in 638.00 W/m2
14:48 63.2 °F 37.9 °F 30.01 in WSW 2.0 mph 9.0 mph 39 % 0.00 in 636.00 W/m2
14:53 63.2 °F 39.1 °F 30.02 in WSW 1.0 mph 9.0 mph 41 % 0.00 in 513.00 W/m2
14:58 63.1 °F 38.4 °F 30.01 in Calm   4.0 mph 40 % 0.00 in 506.00 W/m2
15:03 63.2 °F 39.8 °F 30.01 in Calm   7.0 mph 42 % 0.00 in 494.00 W/m2
15:08 63.2 °F 40.3 °F 30.01 in Calm   7.0 mph 43 % 0.00 in 445.00 W/m2
15:13 63.2 °F 41.0 °F 30.01 in SW 5.0 mph 9.0 mph 44 % 0.00 in 392.00 W/m2
15:18 63.1 °F 40.3 °F 30.01 in Calm   12.0 mph 43 % 0.00 in 406.00 W/m2
15:23 62.8 °F 40.0 °F 30.01 in South 2.0 mph 3.0 mph 43 % 0.00 in 415.00 W/m2
15:29 62.7 °F 40.5 °F 30.01 in West 1.0 mph 9.0 mph 44 % 0.00 in 373.00 W/m2
15:34 62.5 °F 42.0 °F 30.01 in Calm   12.0 mph 47 % 0.00 in 364.00 W/m2
15:39 62.2 °F 41.2 °F 30.01 in Calm   13.0 mph 46 % 0.00 in 302.00 W/m2
15:44 61.9 °F 39.8 °F 30.01 in Calm   8.0 mph 44 % 0.00 in 292.00 W/m2
15:49 61.5 °F 40.5 °F 30.01 in WSW 2.0 mph 9.0 mph 46 % 0.00 in 272.00 W/m2
15:54 61.2 °F 40.8 °F 30.01 in SSW 5.0 mph 9.0 mph 47 % 0.00 in 295.00 W/m2
15:59 61.1 °F 41.8 °F 30.01 in Calm   8.0 mph 49 % 0.00 in 269.00 W/m2
16:04 60.9 °F 43.2 °F 30.00 in Calm   9.0 mph 52 % 0.00 in 246.00 W/m2
16:09 60.8 °F 42.1 °F 30.01 in SW 4.0 mph 9.0 mph 50 % 0.00 in 248.00 W/m2
16:14 60.5 °F 42.3 °F 30.00 in Calm   1.0 mph 51 % 0.00 in 237.00 W/m2
16:19 60.3 °F 42.6 °F 30.01 in Calm   6.0 mph 52 % 0.00 in 192.00 W/m2
16:24 60.1 °F 42.9 °F 30.01 in Calm   4.0 mph 53 % 0.00 in 202.00 W/m2
16:29 60.0 °F 43.8 °F 30.01 in Calm     55 % 0.00 in 213.00 W/m2
16:30 59.9 °F 43.7 °F 30.01 in Calm     55 % 0.00 in 213.00 W/m2
16:35 59.8 °F 43.1 °F 30.01 in SW 9.0 mph 9.0 mph 54 % 0.00 in 197.00 W/m2
16:40 59.6 °F 43.9 °F 30.00 in Calm   7.0 mph 56 % 0.00 in 188.00 W/m2
16:45 59.5 °F 44.3 °F 30.00 in Calm   5.0 mph 57 % 0.00 in 181.00 W/m2
16:50 59.5 °F 44.7 °F 30.00 in Calm   6.0 mph 58 % 0.00 in 188.00 W/m2
16:55 59.4 °F 44.2 °F 30.00 in Calm   5.0 mph 57 % 0.00 in 188.00 W/m2
17:00 59.3 °F 44.1 °F 29.99 in Calm   7.0 mph 57 % 0.00 in 149.00 W/m2
17:05 59.2 °F 44.5 °F 29.99 in Calm     58 % 0.00 in 190.00 W/m2
17:10 59.1 °F 45.7 °F 29.99 in Calm   1.0 mph 61 % 0.00 in 179.00 W/m2
17:12 59.1 °F 44.8 °F 29.99 in Calm     59 % 0.00 in 171.00 W/m2
17:16 59.1 °F 45.2 °F 29.99 in Calm   2.0 mph 60 % 0.00 in 155.00 W/m2
17:22 59.1 °F 44.8 °F 29.99 in Calm   4.0 mph 59 % 0.00 in 148.00 W/m2
17:27 59.0 °F 45.2 °F 29.99 in Calm     60 % 0.00 in 135.00 W/m2
17:32 59.0 °F 45.2 °F 29.98 in Calm     60 % 0.00 in 127.00 W/m2
17:37 59.0 °F 45.6 °F 29.99 in Calm     61 % 0.00 in 125.00 W/m2
17:42 59.0 °F 45.6 °F 29.99 in Calm     61 % 0.00 in 135.00 W/m2
17:47 58.9 °F 45.9 °F 29.99 in Calm     62 % 0.00 in 142.00 W/m2
17:52 58.9 °F 46.3 °F 29.98 in Calm   1.0 mph 63 % 0.00 in 123.00 W/m2
17:57 58.8 °F 46.2 °F 29.97 in Calm     63 % 0.00 in 109.00 W/m2
18:02 58.8 °F 46.7 °F 29.98 in Calm     64 % 0.00 in 118.00 W/m2
18:07 58.8 °F 47.1 °F 29.98 in Calm     65 % 0.00 in 128.00 W/m2
18:12 58.7 °F 47.8 °F 29.98 in Calm   3.0 mph 67 % 0.00 in 105.00 W/m2
18:17 58.7 °F 47.4 °F 29.98 in Calm     66 % 0.00 in 86.00 W/m2
18:22 58.6 °F 47.3 °F 29.98 in Calm     66 % 0.00 in 70.00 W/m2
18:27 58.5 °F 47.6 °F 29.98 in Calm     67 % 0.00 in 49.00 W/m2
18:32 58.4 °F 47.9 °F 29.98 in Calm     68 % 0.00 in 53.00 W/m2
18:37 58.2 °F 48.1 °F 29.97 in Calm     69 % 0.00 in 53.00 W/m2
18:42 58.1 °F 48.0 °F 29.97 in Calm     69 % 0.00 in 47.00 W/m2
18:43 58.1 °F 48.0 °F 29.97 in Calm     69 % 0.00 in 44.00 W/m2
18:48 58.0 °F 47.9 °F 29.98 in Calm     69 % 0.00 in 37.00 W/m2
18:53 57.9 °F 48.2 °F 29.98 in Calm     70 % 0.00 in 46.00 W/m2
18:58 57.7 °F 48.4 °F 29.97 in Calm     71 % 0.00 in 49.00 W/m2
19:03 57.6 °F 48.7 °F 29.97 in Calm     72 % 0.00 in 32.00 W/m2
19:08 57.4 °F 48.5 °F 29.98 in Calm     72 % 0.00 in 21.00 W/m2
19:13 57.3 °F 48.4 °F 29.98 in Calm     72 % 0.00 in 28.00 W/m2
19:18 57.2 °F 48.6 °F 29.97 in Calm     73 % 0.00 in 21.00 W/m2
19:23 57.0 °F 48.4 °F 29.97 in Calm     73 % 0.00 in 25.00 W/m2
19:28 56.8 °F 48.6 °F 29.97 in Calm     74 % 0.00 in 21.00 W/m2
19:33 56.7 °F 48.5 °F 29.97 in Calm     74 % 0.00 in 19.00 W/m2
19:38 56.6 °F 48.8 °F 29.97 in Calm     75 % 0.00 in 12.00 W/m2
19:43 56.6 °F 48.8 °F 29.97 in Calm     75 % 0.00 in 5.00 W/m2
19:48 56.5 °F 48.7 °F 29.97 in Calm     75 % 0.00 in 0.00 W/m2
19:53 56.4 °F 48.6 °F 29.97 in Calm   1.0 mph 75 % 0.00 in 0.00 W/m2
19:58 56.3 °F 48.8 °F 29.96 in Calm     76 % 0.00 in 0.00 W/m2
20:03 56.1 °F 48.7 °F 29.96 in Calm     76 % 0.00 in 0.00 W/m2
20:08 56.0 °F 48.5 °F 29.96 in Calm     76 % 0.00 in 0.00 W/m2
20:13 55.9 °F 48.5 °F 29.96 in Calm     76 % 0.00 in 0.00 W/m2
20:18 55.8 °F 48.4 °F 29.96 in SSE 2.0 mph 6.0 mph 76 % 0.00 in 0.00 W/m2
20:23 55.7 °F 48.6 °F 29.97 in Calm   5.0 mph 77 % 0.00 in 0.00 W/m2
20:28 55.6 °F 48.5 °F 29.97 in Calm     77 % 0.00 in 0.00 W/m2
20:33 55.5 °F 48.8 °F 29.97 in Calm   5.0 mph 78 % 0.00 in 0.00 W/m2
20:38 55.5 °F 48.8 °F 29.98 in Calm     78 % 0.00 in 0.00 W/m2
20:43 55.4 °F 48.7 °F 29.98 in SSE 2.0 mph 2.0 mph 78 % 0.00 in 0.00 W/m2
20:48 55.3 °F 48.6 °F 29.97 in SSE 5.0 mph 8.0 mph 78 % 0.00 in 0.00 W/m2
20:53 55.1 °F 48.4 °F 29.98 in Calm     78 % 0.00 in 0.00 W/m2
20:58 55.1 °F 48.4 °F 29.98 in Calm   5.0 mph 78 % 0.00 in 0.00 W/m2
21:03 55.0 °F 48.3 °F 29.98 in Calm   6.0 mph 78 % 0.00 in 0.00 W/m2
21:08 55.0 °F 48.6 °F 29.99 in Calm     79 % 0.00 in 0.00 W/m2
21:13 54.9 °F 48.5 °F 29.98 in Calm     79 % 0.00 in 0.00 W/m2
21:18 54.9 °F 48.5 °F 29.98 in Calm   4.0 mph 79 % 0.00 in 0.00 W/m2
21:23 54.9 °F 48.2 °F 29.98 in Calm   2.0 mph 78 % 0.00 in 0.00 W/m2
21:28 54.8 °F 48.4 °F 29.98 in Calm   2.0 mph 79 % 0.00 in 0.00 W/m2
21:33 54.8 °F 48.4 °F 29.98 in Calm     79 % 0.00 in 0.00 W/m2
21:38 54.7 °F 48.3 °F 29.98 in Calm   5.0 mph 79 % 0.00 in 0.00 W/m2
21:43 54.6 °F 48.6 °F 29.97 in SSE 4.0 mph 8.0 mph 80 % 0.00 in 0.00 W/m2
21:48 54.5 °F 48.5 °F 29.97 in Calm   8.0 mph 80 % 0.00 in 0.00 W/m2
21:53 54.4 °F 48.7 °F 29.97 in SSE 2.0 mph 6.0 mph 81 % 0.00 in 0.00 W/m2
21:58 54.3 °F 48.9 °F 29.97 in SSE 5.0 mph 6.0 mph 82 % 0.00 in 0.00 W/m2
22:03 54.2 °F 48.8 °F 29.97 in SSE 2.0 mph 7.0 mph 82 % 0.00 in 0.00 W/m2
22:08 54.1 °F 48.7 °F 29.97 in SSE 4.0 mph 9.0 mph 82 % 0.00 in 0.00 W/m2
22:13 54.0 °F 48.6 °F 29.97 in SE 6.0 mph 8.0 mph 82 % 0.00 in 0.00 W/m2
22:18 53.8 °F 48.4 °F 29.98 in SE 1.0 mph 7.0 mph 82 % 0.00 in 0.00 W/m2
22:23 53.7 °F 48.7 °F 29.98 in Calm   5.0 mph 83 % 0.00 in 0.00 W/m2
22:28 53.6 °F 48.6 °F 29.98 in Calm     83 % 0.00 in 0.00 W/m2
22:33 53.5 °F 48.5 °F 29.98 in Calm     83 % 0.00 in 0.00 W/m2
22:39 53.4 °F 48.4 °F 29.98 in Calm     83 % 0.00 in 0.00 W/m2
22:44 53.3 °F 48.3 °F 29.97 in SE 1.0 mph 4.0 mph 83 % 0.00 in 0.00 W/m2
22:49 53.2 °F 48.2 °F 29.97 in Calm     83 % 0.00 in 0.00 W/m2
22:54 53.1 °F 48.1 °F 29.97 in Calm     83 % 0.00 in 0.00 W/m2
22:59 53.0 °F 48.3 °F 29.97 in Calm     84 % 0.00 in 0.00 W/m2
23:04 52.9 °F 48.2 °F 29.97 in Calm   4.0 mph 84 % 0.00 in 0.00 W/m2
23:09 52.8 °F 48.1 °F 29.97 in Calm     84 % 0.00 in 0.00 W/m2
23:14 52.8 °F 48.4 °F 29.97 in Calm     85 % 0.00 in 0.00 W/m2
23:19 52.7 °F 48.3 °F 29.97 in Calm   5.0 mph 85 % 0.00 in 0.00 W/m2
23:24 52.6 °F 48.2 °F 29.96 in SSE 2.0 mph 6.0 mph 85 % 0.00 in 0.00 W/m2
23:29 52.4 °F 48.0 °F 29.96 in Calm     85 % 0.00 in 0.00 W/m2
23:34 52.4 °F 48.0 °F 29.96 in Calm     85 % 0.00 in 0.00 W/m2
23:39 52.3 °F 48.2 °F 29.96 in Calm     86 % 0.00 in 0.00 W/m2
23:44 52.3 °F 48.2 °F 29.96 in Calm     86 % 0.00 in 0.00 W/m2
23:49 52.4 °F 48.7 °F 29.96 in Calm   5.0 mph 87 % 0.00 in 0.00 W/m2
23:54 52.4 °F 48.7 °F 29.96 in SSE 4.0 mph 4.0 mph 87 % 0.00 in 0.00 W/m2
23:59 52.4 °F 49.0 °F 29.96 in Calm     88 % 0.00 in 0.00 W/m2
Juneau County Weather
Compliments of Weather Underground - 4.5 mb
 WU-history PHP script courtesy of   Juneau County Weather.
powered by Cumulus v1.9.3 (1059)
Ambient Weather VWS v14.00
Top Contact Website Map Copyright © 2007 - 2018 Foresthillweather.com Never base important decisions on this or any weather information obtained from the Internet